TimeAKST,TemperatureF,Dew PointF,Humidity,Sea Level PressureIn,VisibilityMPH,Wind Direction,Wind SpeedMPH,Gust SpeedMPH,PrecipitationIn,Events,Conditions,WindDirDegrees,DateUTC
12:16 AM,10.4,3.2,73,29.73,10.0,NE,8.1,-,N/A,,Overcast,40,2013-02-13 09:16:00
12:36 AM,10.4,3.2,73,29.73,10.0,NNE,6.9,-,N/A,,Overcast,30,2013-02-13 09:36:00
12:56 AM,10.4,3.2,73,29.74,9.0,NNE,8.1,-,N/A,,Overcast,30,2013-02-13 09:56:00
1:16 AM,10.4,5.0,79,29.74,7.0,NNE,8.1,-,N/A,,Overcast,30,2013-02-13 10:16:00
1:36 AM,10.4,6.8,85,29.74,3.0,NNE,8.1,-,N/A,,Overcast,20,2013-02-13 10:36:00
1:56 AM,10.4,6.8,85,29.74,4.0,NNE,8.1,-,N/A,,Overcast,20,2013-02-13 10:56:00
2:16 AM,10.4,6.8,85,29.74,10.0,North,8.1,-,N/A,,Overcast,10,2013-02-13 11:16:00
2:36 AM,10.4,6.8,85,29.74,10.0,North,9.2,-,N/A,,Overcast,10,2013-02-13 11:36:00
2:56 AM,10.4,6.8,85,29.73,10.0,NNE,8.1,-,N/A,,Overcast,30,2013-02-13 11:56:00
3:16 AM,10.4,6.8,85,29.73,10.0,North,8.1,-,N/A,,Overcast,10,2013-02-13 12:16:00
3:36 AM,12.2,5.0,73,29.73,10.0,NNE,10.4,-,N/A,,Overcast,30,2013-02-13 12:36:00
3:56 AM,12.2,5.0,73,29.73,10.0,NNE,8.1,-,N/A,,Overcast,30,2013-02-13 12:56:00
4:16 AM,12.2,5.0,73,29.73,10.0,NNE,9.2,-,N/A,,Overcast,30,2013-02-13 13:16:00
4:36 AM,12.2,5.0,73,29.72,10.0,NNE,8.1,-,N/A,,Overcast,30,2013-02-13 13:36:00
4:56 AM,10.4,5.0,79,29.72,9.0,NNE,9.2,-,N/A,,Overcast,20,2013-02-13 13:56:00
5:16 AM,12.2,5.0,73,29.72,9.0,NE,8.1,-,N/A,,Overcast,40,2013-02-13 14:16:00
5:36 AM,12.2,6.8,79,29.72,9.0,NNE,8.1,-,N/A,,Overcast,30,2013-02-13 14:36:00
5:56 AM,12.2,6.8,79,29.72,5.0,NNE,10.4,-,N/A,,Overcast,30,2013-02-13 14:56:00
6:16 AM,12.2,6.8,79,29.71,3.0,NNE,9.2,-,N/A,,Overcast,30,2013-02-13 15:16:00
6:36 AM,12.2,6.8,79,29.71,4.0,North,10.4,-,N/A,,Overcast,10,2013-02-13 15:36:00
6:56 AM,12.2,6.8,79,29.71,3.0,NNE,11.5,-,N/A,,Overcast,20,2013-02-13 15:56:00
7:16 AM,12.2,6.8,79,29.70,8.0,NNE,12.7,-,N/A,,Overcast,20,2013-02-13 16:16:00
7:36 AM,12.2,8.6,85,29.70,3.0,NNE,10.4,-,N/A,,Overcast,30,2013-02-13 16:36:00
7:56 AM,12.2,8.6,85,29.71,2.5,NNE,10.4,-,N/A,,Overcast,20,2013-02-13 16:56:00
8:16 AM,12.2,8.6,85,29.71,3.0,NNE,9.2,-,N/A,,Overcast,30,2013-02-13 17:16:00
8:36 AM,14.0,10.4,86,29.71,2.5,NNE,9.2,-,N/A,,Overcast,30,2013-02-13 17:36:00
8:56 AM,14.0,10.4,86,29.71,2.0,NNE,10.4,-,N/A,,Overcast,30,2013-02-13 17:56:00
9:16 AM,14.0,10.4,86,29.71,2.5,NNE,11.5,-,N/A,,Overcast,30,2013-02-13 18:16:00
9:36 AM,14.0,10.4,86,29.71,2.5,NNE,8.1,-,N/A,,Overcast,20,2013-02-13 18:36:00
9:56 AM,14.0,10.4,86,29.71,1.8,NNE,9.2,-,N/A,,Overcast,20,2013-02-13 18:56:00
10:16 AM,14.0,10.4,86,29.71,1.5,NNE,8.1,-,N/A,,Overcast,20,2013-02-13 19:16:00
10:36 AM,15.8,10.4,79,29.71,2.0,NNE,8.1,-,N/A,,Overcast,20,2013-02-13 19:36:00
10:56 AM,15.8,10.4,79,29.71,2.5,North,8.1,-,N/A,,Overcast,10,2013-02-13 19:56:00
11:16 AM,15.8,10.4,79,29.72,1.8,North,9.2,-,N/A,,Overcast,10,2013-02-13 20:16:00
11:36 AM,15.8,10.4,79,29.72,1.2,NNE,8.1,-,N/A,,Overcast,20,2013-02-13 20:36:00
11:56 AM,15.8,10.4,79,29.72,2.0,NNE,8.1,-,N/A,,Overcast,30,2013-02-13 20:56:00
12:16 PM,15.8,10.4,79,29.72,2.0,NNE,5.8,-,N/A,,Overcast,20,2013-02-13 21:16:00
12:36 PM,15.8,10.4,79,29.72,1.5,NE,5.8,-,N/A,,Overcast,40,2013-02-13 21:36:00
12:56 PM,15.8,12.2,86,29.73,1.0,NNE,4.6,-,N/A,,Overcast,20,2013-02-13 21:56:00
1:16 PM,17.6,14.0,86,29.73,0.8,North,3.5,-,N/A,,Overcast,360,2013-02-13 22:16:00
1:36 PM,17.6,12.2,79,29.72,1.2,NNE,4.6,-,N/A,,Overcast,30,2013-02-13 22:36:00
1:56 PM,17.6,12.2,79,29.72,2.5,Calm,Calm,-,N/A,,Overcast,0,2013-02-13 22:56:00
2:16 PM,17.6,14.0,86,29.72,3.0,NNE,3.5,-,N/A,,Overcast,20,2013-02-13 23:16:00
2:36 PM,17.6,14.0,86,29.71,3.0,NNE,5.8,-,N/A,,Overcast,30,2013-02-13 23:36:00
2:56 PM,17.6,12.2,79,29.71,10.0,NE,5.8,-,N/A,,Overcast,40,2013-02-13 23:56:00
3:16 PM,17.6,14.0,86,29.71,5.0,North,8.1,-,N/A,,Overcast,10,2013-02-14 00:16:00
3:36 PM,19.4,14.0,80,29.70,2.0,North,8.1,-,N/A,,Overcast,10,2013-02-14 00:36:00
3:56 PM,19.4,14.0,80,29.69,3.0,North,9.2,-,N/A,,Overcast,10,2013-02-14 00:56:00
4:16 PM,19.4,14.0,80,29.69,10.0,North,5.8,-,N/A,,Overcast,360,2013-02-14 01:16:00
4:36 PM,19.4,14.0,80,29.69,5.0,Calm,Calm,-,N/A,,Overcast,0,2013-02-14 01:36:00
4:56 PM,19.4,14.0,80,29.70,5.0,Calm,Calm,-,N/A,,Overcast,0,2013-02-14 01:56:00
5:16 PM,19.4,14.0,80,29.70,1.5,Calm,Calm,-,N/A,,Overcast,0,2013-02-14 02:16:00
5:36 PM,19.4,15.8,86,29.69,8.0,North,5.8,-,N/A,,Overcast,360,2013-02-14 02:36:00
5:56 PM,17.6,14.0,86,29.69,10.0,North,4.6,-,N/A,,Overcast,350,2013-02-14 02:56:00
6:16 PM,19.4,15.8,86,29.69,10.0,NNE,4.6,-,N/A,,Overcast,20,2013-02-14 03:16:00
6:36 PM,19.4,14.0,80,29.69,10.0,North,5.8,-,N/A,,Overcast,10,2013-02-14 03:36:00
6:56 PM,17.6,12.2,79,29.68,10.0,North,4.6,-,N/A,,Overcast,360,2013-02-14 03:56:00
7:16 PM,17.6,14.0,86,29.69,1.5,North,3.5,-,N/A,,Overcast,10,2013-02-14 04:16:00
7:36 PM,17.6,15.8,93,29.69,1.5,North,3.5,-,N/A,,Overcast,10,2013-02-14 04:36:00
7:56 PM,17.6,15.8,93,29.70,1.5,NNE,3.5,-,N/A,,Overcast,20,2013-02-14 04:56:00
8:16 PM,17.6,15.8,93,29.69,1.5,North,5.8,-,N/A,,Overcast,10,2013-02-14 05:16:00
8:36 PM,17.6,15.8,93,29.70,2.0,NNE,4.6,-,N/A,,Overcast,20,2013-02-14 05:36:00
8:56 PM,17.6,15.8,93,29.70,2.0,Calm,Calm,-,N/A,,Overcast,0,2013-02-14 05:56:00
9:16 PM,17.6,15.8,93,29.71,2.5,Calm,Calm,-,N/A,,Overcast,0,2013-02-14 06:16:00
9:36 PM,17.6,15.8,93,29.71,2.5,Calm,Calm,-,N/A,,Overcast,0,2013-02-14 06:36:00
9:56 PM,17.6,15.8,93,29.70,2.0,Calm,Calm,-,N/A,,Overcast,0,2013-02-14 06:56:00
10:16 PM,19.4,15.8,86,29.70,2.0,Calm,Calm,-,N/A,,Overcast,0,2013-02-14 07:16:00
10:36 PM,19.4,15.8,86,29.70,2.0,Calm,Calm,-,N/A,,Overcast,0,2013-02-14 07:36:00
10:56 PM,19.4,15.8,86,29.70,1.5,North,3.5,-,N/A,,Overcast,10,2013-02-14 07:56:00
11:16 PM,19.4,15.8,86,29.70,1.0,North,3.5,-,N/A,,Overcast,10,2013-02-14 08:16:00
11:36 PM,19.4,15.8,86,29.70,1.0,North,3.5,-,N/A,,Overcast,360,2013-02-14 08:36:00
11:56 PM,19.4,15.8,86,29.70,1.0,Calm,Calm,-,N/A,,Overcast,0,2013-02-14 08:56:00